TimeWET,TemperatureF,Dew PointF,Humidity,Sea Level PressureIn,VisibilityMPH,Wind Direction,Wind SpeedMPH,Gust SpeedMPH,PrecipitationIn,Events,Conditions,WindDirDegrees,DateUTC
12:00 AM,63,61,89,30.13,4,NE,2.3,,,,Partly Cloudy,50,2012-10-01 00:00:00
12:00 AM,62.6,60.8,94,30.12,3.7,NE,2.3,-,N/A,,Scattered Clouds,50,2012-10-01 00:00:00
12:30 AM,64.4,60.8,88,30.12,3.7,East,4.6,-,N/A,,Scattered Clouds,100,2012-10-01 00:30:00
1:00 AM,62.6,60.8,94,30.12,3.7,ESE,3.5,-,N/A,,Scattered Clouds,110,2012-10-01 01:00:00
1:30 AM,62.6,60.8,94,30.09,3.7,Variable,2.3,-,N/A,,Scattered Clouds,0,2012-10-01 01:30:00
2:00 AM,62.6,59.0,88,30.09,-9999.0,SE,3.5,-,N/A,,Unknown,130,2012-10-01 02:00:00
2:30 AM,62.6,59.0,88,30.09,-9999.0,Variable,2.3,-,N/A,,Unknown,0,2012-10-01 02:30:00
3:00 AM,61,59,90,30.12,3,East,2.3,,,,,80,2012-10-01 03:00:00
3:00 AM,60.8,59.0,94,30.09,-9999.0,Variable,2.3,-,N/A,,Unknown,0,2012-10-01 03:00:00
3:30 AM,60.8,59.0,94,30.09,-9999.0,Variable,2.3,-,N/A,,Unknown,0,2012-10-01 03:30:00
4:00 AM,62.6,60.8,94,30.09,6.2,ESE,4.6,-,N/A,,Unknown,110,2012-10-01 04:00:00
4:30 AM,62.6,60.8,94,30.09,-9999.0,East,6.9,-,N/A,,Unknown,100,2012-10-01 04:30:00
5:00 AM,60.8,59.0,94,30.09,4.3,Calm,Calm,-,N/A,,Scattered Clouds,0,2012-10-01 05:00:00
5:30 AM,60.8,59.0,94,30.09,4.3,Calm,Calm,-,N/A,,Scattered Clouds,0,2012-10-01 05:30:00
6:00 AM,63,61,91,30.12,4,East,5.8,,,,Partly Cloudy,100,2012-10-01 06:00:00
6:00 AM,62.6,60.8,94,30.09,4.3,East,5.8,-,N/A,,Scattered Clouds,100,2012-10-01 06:00:00
6:30 AM,62.6,60.8,94,30.12,4.3,Variable,2.3,-,N/A,,Scattered Clouds,0,2012-10-01 06:30:00
7:00 AM,62.6,60.8,94,30.12,3.1,ENE,3.5,-,N/A,,Unknown,70,2012-10-01 07:00:00
7:30 AM,64.4,62.6,94,30.12,3.1,ESE,3.5,-,N/A,,Unknown,110,2012-10-01 07:30:00
8:00 AM,66.2,62.6,88,30.12,3.1,ENE,8.1,-,N/A,,Unknown,70,2012-10-01 08:00:00
8:30 AM,68.0,64.4,88,30.12,3.1,ENE,5.8,-,N/A,,Unknown,60,2012-10-01 08:30:00
9:00 AM,69,64,79,30.16,5,East,8.1,,,,Scattered Clouds,90,2012-10-01 09:00:00
9:00 AM,68.0,64.4,88,30.15,5.0,East,8.1,-,N/A,,Partly Cloudy,90,2012-10-01 09:00:00
9:30 AM,71.6,64.4,78,30.15,5.0,East,5.8,-,N/A,,Partly Cloudy,80,2012-10-01 09:30:00
10:00 AM,73.4,62.6,69,30.15,5.0,ENE,8.1,-,N/A,,Partly Cloudy,70,2012-10-01 10:00:00
10:30 AM,75.2,62.6,65,30.15,5.0,ENE,9.2,-,N/A,,Partly Cloudy,70,2012-10-01 10:30:00
11:00 AM,77.0,64.4,65,30.15,5.0,ENE,6.9,-,N/A,,Partly Cloudy,60,2012-10-01 11:00:00
11:30 AM,77.0,62.6,61,30.15,5.0,ENE,6.9,-,N/A,,Partly Cloudy,60,2012-10-01 11:30:00
12:00 PM,78,63,51,30.15,5,ENE,8.1,,,,Scattered Clouds,60,2012-10-01 12:00:00
12:00 PM,78.8,62.6,57,30.12,5.0,ENE,8.1,-,N/A,,Partly Cloudy,60,2012-10-01 12:00:00
12:30 PM,78.8,60.8,54,30.12,5.0,NE,6.9,-,N/A,,Partly Cloudy,50,2012-10-01 12:30:00
1:00 PM,78.8,59.0,51,30.12,5.0,ENE,9.2,-,N/A,,Partly Cloudy,70,2012-10-01 13:00:00
1:30 PM,78.8,60.8,54,30.12,5.0,ENE,10.4,-,N/A,,Partly Cloudy,60,2012-10-01 13:30:00
2:00 PM,78.8,59.0,51,30.12,5.0,ENE,9.2,-,N/A,,Partly Cloudy,60,2012-10-01 14:00:00
2:30 PM,78.8,60.8,54,30.12,6.2,NE,11.5,-,N/A,,Partly Cloudy,50,2012-10-01 14:30:00
3:00 PM,78,59,43,30.12,6,ENE,13.8,,,,Scattered Clouds,60,2012-10-01 15:00:00
3:00 PM,78.8,60.8,54,30.09,6.2,ENE,13.8,-,N/A,,Partly Cloudy,60,2012-10-01 15:00:00
3:30 PM,77.0,59.0,54,30.09,6.2,ENE,12.7,-,N/A,,Partly Cloudy,60,2012-10-01 15:30:00
4:00 PM,77.0,59.0,54,30.09,6.2,ENE,15.0,-,N/A,,Partly Cloudy,60,2012-10-01 16:00:00
4:30 PM,77.0,59.0,54,30.09,6.2,ENE,12.7,-,N/A,,Partly Cloudy,60,2012-10-01 16:30:00
5:00 PM,78.8,59.0,51,30.09,6.2,ENE,9.2,-,N/A,,Partly Cloudy,60,2012-10-01 17:00:00
5:30 PM,75.2,59.0,57,30.09,6.2,NE,8.1,-,N/A,,Partly Cloudy,50,2012-10-01 17:30:00
6:00 PM,74,59,50,30.12,6,NNE,6.9,,,,Scattered Clouds,30,2012-10-01 18:00:00
6:00 PM,75.2,59.0,57,30.09,6.2,NNE,6.9,-,N/A,,Partly Cloudy,30,2012-10-01 18:00:00
6:30 PM,71.6,59.0,64,30.12,6.2,NE,8.1,-,N/A,,Partly Cloudy,40,2012-10-01 18:30:00
7:00 PM,69.8,59.0,68,30.12,6.2,Variable,1.2,-,N/A,,Partly Cloudy,0,2012-10-01 19:00:00
7:30 PM,68.0,60.8,78,30.12,6.2,NNE,3.5,-,N/A,,Partly Cloudy,20,2012-10-01 19:30:00
8:00 PM,68.0,60.8,78,30.12,6.2,NE,3.5,-,N/A,,Partly Cloudy,40,2012-10-01 20:00:00
8:30 PM,66.2,59.0,78,30.15,6.2,NE,3.5,-,N/A,,Partly Cloudy,50,2012-10-01 20:30:00
9:00 PM,67,59,70,30.17,6,East,2.3,,,,Scattered Clouds,80,2012-10-01 21:00:00
9:00 PM,-9999,-9999,N/A,0.00,-9999.0,North,-9999.0,-,N/A,,Partly Cloudy,0,2012-10-01 21:00:00
9:30 PM,66.2,60.8,83,30.15,5.0,NE,6.9,-,N/A,,Partly Cloudy,50,2012-10-01 21:30:00
10:00 PM,66.2,60.8,83,30.15,5.0,ESE,3.5,-,N/A,,Partly Cloudy,120,2012-10-01 22:00:00
10:30 PM,66.2,60.8,83,30.15,5.0,ENE,3.5,-,N/A,,Partly Cloudy,70,2012-10-01 22:30:00
11:00 PM,66.2,59.0,78,30.15,5.0,ENE,8.1,-,N/A,,Partly Cloudy,60,2012-10-01 23:00:00
11:30 PM,66.2,59.0,78,30.15,5.0,NE,5.8,-,N/A,,Partly Cloudy,50,2012-10-01 23:30:00